| time (UTC) | temp F | wind direction | speed MPH | gust MPH | rain 1hr in | rain 24hr in | rain mn in | humidity % | barometer mb |
| 20260506192410 | 62 | 202 | 0.0 | 0.0 | 0.00 | 0.13 | 0.13 | 89 | 1029.9 |
| 20260506191410 | 62 | 57 | 0.0 | 2.0 | 0.00 | 0.13 | 0.13 | 90 | 1030.1 |
| 20260506190410 | 62 | 67 | 0.0 | 0.0 | 0.00 | 0.13 | 0.13 | 90 | 1030.2 |
| 20260506185409 | 62 | 45 | 0.0 | 2.0 | 0.00 | 0.13 | 0.13 | 90 | 1030.1 |
| 20260506183509 | 61 | 184 | 0.0 | 6.0 | 0.00 | 0.13 | 0.13 | 90 | 1030.3 |
| 20260506183412 | 61 | 157 | 0.0 | 0.0 | 0.00 | 0.13 | 0.13 | 91 | 1030.3 |
| 20260506182411 | 61 | 67 | 0.0 | 0.0 | 0.00 | 0.13 | 0.13 | 91 | 1030.4 |
| 20260506181411 | 61 | 91 | 1.0 | 7.0 | 0.00 | 0.13 | 0.13 | 91 | 1030.5 |
| 20260506181311 | 61 | 360 | 0.0 | 1.0 | 0.00 | 0.13 | 0.13 | 91 | 1030.4 |
| 20260506175311 | 61 | 315 | 0.0 | 0.0 | 0.00 | 0.13 | 0.13 | 91 | 1030.4 |
| 20260506175211 | 61 | 315 | 0.0 | 0.0 | 0.00 | 0.13 | 0.13 | 90 | 1030.6 |
| 20260506174212 | 61 | 22 | 0.0 | 0.0 | 0.01 | 0.13 | 0.13 | 91 | 1030.5 |
| 20260506173211 | 61 | 22 | 0.0 | 5.0 | 0.01 | 0.13 | 0.13 | 90 | 1030.6 |
| 20260506172211 | 62 | 360 | 0.0 | 0.0 | 0.02 | 0.13 | 0.13 | 90 | 1030.7 |
| 20260506171210 | 62 | 199 | 0.0 | 2.0 | 0.02 | 0.13 | 0.13 | 89 | 1030.7 |
| 20260506170212 | 62 | 36 | 0.0 | 0.0 | 0.04 | 0.13 | 0.13 | 91 | 1030.6 |
| 20260506165310 | 62 | 318 | 0.0 | 2.0 | 0.05 | 0.13 | 0.13 | 89 | 1030.6 |
| 20260506164311 | 62 | 41 | 1.0 | 2.0 | 0.05 | 0.12 | 0.12 | 90 | 1030.6 |
| 20260506163310 | 62 | 14 | 1.0 | 4.0 | 0.07 | 0.12 | 0.12 | 89 | 1030.6 |
| 20260506162310 | 62 | 51 | 1.0 | 3.0 | 0.08 | 0.11 | 0.11 | 90 | 1031.0 |
| 20260506161409 | 62 | 324 | 0.0 | 2.0 | 0.09 | 0.11 | 0.11 | 88 | 1031.5 |
| 20260506160412 | 62 | 6 | 0.0 | 2.0 | 0.10 | 0.10 | 0.10 | 88 | 1031.8 |
| 20260506155410 | 62 | 45 | 0.0 | 0.0 | 0.08 | 0.08 | 0.08 | 86 | 1032.2 |
| 20260506154428 | 62 | 45 | 0.0 | 0.0 | 0.07 | 0.07 | 0.07 | 84 | 1032.2 |
| 20260506154312 | 62 | 45 | 0.0 | 0.0 | 0.07 | 0.07 | 0.07 | 85 | 1032.2 |
| 20260506154209 | 62 | 45 | 0.0 | 1.0 | 0.07 | 0.07 | 0.06 | 84 | 1032.2 |
| 20260506153211 | 62 | 45 | 0.0 | 0.0 | 0.05 | 0.05 | 0.04 | 84 | 1032.1 |
| 20260506152212 | 63 | 45 | 0.0 | 2.0 | 0.03 | 0.03 | 0.03 | 81 | 1032.2 |
| 20260506145411 | 65 | 270 | 0.0 | 0.0 | 0.00 | 0.00 | 0.00 | 75 | 1031.8 |
| 20260506144410 | 66 | 90 | 0.0 | 1.0 | 0.00 | 0.00 | 0.00 | 73 | 1032.0 |
| 20260506143410 | 67 | 337 | 0.0 | 0.0 | 0.00 | 0.00 | 0.00 | 68 | 1032.1 |
| 20260506142411 | 67 | 315 | 0.0 | 0.0 | 0.00 | 0.00 | 0.00 | 65 | 1032.0 |
| 20260506141410 | 68 | 189 | 1.0 | 5.0 | 0.00 | 0.00 | 0.00 | 64 | 1031.8 |
| 20260506140410 | 68 | 299 | 1.0 | 4.0 | 0.00 | 0.00 | 0.00 | 65 | 1031.7 |
| 20260506135509 | 67 | 287 | 0.0 | 3.0 | 0.00 | 0.00 | 0.00 | 66 | 1031.7 |
| 20260506134510 | 67 | 358 | 0.0 | 3.0 | 0.00 | 0.00 | 0.00 | 68 | 1031.7 |
| 20260506133511 | 66 | 352 | 0.0 | 2.0 | 0.00 | 0.00 | 0.00 | 68 | 1031.9 |
| 20260506132510 | 67 | 337 | 0.0 | 1.0 | 0.00 | 0.00 | 0.00 | 67 | 1031.7 |
| 20260506131511 | 67 | 288 | 0.0 | 2.0 | 0.00 | 0.00 | 0.00 | 67 | 1031.6 |
| 20260506123512 | 66 | 78 | 0.0 | 1.0 | 0.00 | 0.00 | 0.00 | 70 | 1032.1 |
| 20260506122610 | 65 | 45 | 0.0 | 2.0 | 0.00 | 0.00 | 0.00 | 71 | 1031.7 |
| 20260506122511 | 65 | 318 | 0.0 | 3.0 | 0.00 | 0.00 | 0.00 | 70 | 1031.8 |
| 20260506121609 | 65 | 225 | 0.0 | 0.0 | 0.00 | 0.00 | 0.00 | 70 | 1031.8 |
| 20260506121527 | 65 | 267 | 0.0 | 1.0 | 0.00 | 0.00 | 0.00 | 71 | 1031.8 |
| 20260506120612 | 64 | 90 | 0.0 | 2.0 | 0.00 | 0.00 | 0.00 | 72 | 1032.1 |
| 20260506115708 | 64 | 270 | 0.0 | 1.0 | 0.00 | 0.00 | 0.00 | 73 | 1032.0 |
| 20260506115610 | 64 | 286 | 0.0 | 2.0 | 0.00 | 0.00 | 0.00 | 73 | 1031.9 |
| 20260506114610 | 64 | 357 | 0.0 | 3.0 | 0.00 | 0.00 | 0.00 | 72 | 1032.1 |
| 20260506114510 | 64 | 337 | 0.0 | 0.0 | 0.00 | 0.00 | 0.00 | 72 | 1032.0 |
| 20260506113609 | 64 | 277 | 0.0 | 1.0 | 0.00 | 0.00 | 0.00 | 73 | 1031.7 |
| 20260506113510 | 64 | 52 | 0.0 | 3.0 | 0.00 | 0.00 | 0.00 | 72 | 1031.7 |
| 20260506112510 | 64 | 45 | 1.0 | 4.0 | 0.00 | 0.00 | 0.00 | 72 | 1031.8 |
| 20260506111610 | 64 | 45 | 0.0 | 1.0 | 0.00 | 0.00 | 0.00 | 73 | 1031.9 |
| 20260506105613 | 63 | 45 | 0.0 | 4.0 | 0.00 | 0.00 | 0.00 | 75 | 1031.8 |
| 20260506104709 | 63 | 71 | 0.0 | 3.0 | 0.00 | 0.00 | 0.00 | 75 | 1031.7 |
| 20260506103710 | 63 | 180 | 0.0 | 0.0 | 0.00 | 0.00 | 0.00 | 75 | 1031.7 |
| 20260506102711 | 63 | 315 | 0.0 | 0.0 | 0.00 | 0.00 | 0.00 | 76 | 1031.7 |
| 20260506101809 | 63 | 204 | 0.0 | 0.0 | 0.00 | 0.00 | 0.00 | 76 | 1031.7 |
| 20260506095810 | 63 | 45 | 0.0 | 1.0 | 0.00 | 0.00 | 0.00 | 75 | 1031.7 |
| 20260506094811 | 63 | 360 | 0.0 | 2.0 | 0.00 | 0.00 | 0.00 | 74 | 1031.6 |
| 20260506093909 | 63 | 337 | 0.0 | 2.0 | 0.00 | 0.00 | 0.00 | 74 | 1031.5 |
| 20260506091811 | 64 | 360 | 0.0 | 2.0 | 0.00 | 0.00 | 0.00 | 74 | 1031.5 |
| 20260506091711 | 64 | 22 | 0.0 | 2.0 | 0.00 | 0.00 | 0.00 | 74 | 1031.5 |
| 20260506090809 | 64 | 206 | 0.0 | 2.0 | 0.00 | 0.00 | 0.00 | 73 | 1031.4 |
| 20260506085810 | 64 | 37 | 1.0 | 4.0 | 0.00 | 0.00 | 0.00 | 73 | 1031.7 |
| 20260506085711 | 64 | 17 | 1.0 | 5.0 | 0.00 | 0.00 | 0.00 | 74 | 1031.7 |
| 20260506084711 | 63 | 180 | 0.0 | 1.0 | 0.00 | 0.00 | 0.00 | 74 | 1031.7 |
| 20260506083711 | 63 | 67 | 0.0 | 1.0 | 0.00 | 0.00 | 0.00 | 75 | 1031.7 |
| 20260506082712 | 63 | 45 | 0.0 | 1.0 | 0.00 | 0.00 | 0.00 | 75 | 1031.7 |
| 20260506081809 | 63 | 315 | 0.0 | 1.0 | 0.00 | 0.00 | 0.00 | 75 | 1031.8 |
| 20260506080811 | 63 | 360 | 0.0 | 1.0 | 0.00 | 0.00 | 0.00 | 74 | 1032.0 |
| 20260506072809 | 65 | 292 | 0.0 | 1.0 | 0.00 | 0.00 | 0.00 | 72 | 1032.1 |
| 20260506061811 | 66 | 307 | 0.0 | 3.0 | 0.00 | 0.00 | 0.00 | 70 | 1032.4 |
| 20260506060809 | 66 | 22 | 0.0 | 2.0 | 0.00 | 0.00 | 0.00 | 69 | 1032.4 |
| 20260506050711 | 66 | 270 | 0.0 | 0.0 | 0.00 | 0.00 | 0.00 | 64 | 1032.8 |
| 20260506044710 | 66 | 275 | 0.0 | 2.0 | 0.00 | 0.00 | 0.00 | 63 | 1032.9 |
| 20260506043710 | 67 | 360 | 0.0 | 1.0 | 0.00 | 0.00 | 0.00 | 62 | 1032.9 |
| 20260506043610 | 67 | 271 | 0.0 | 2.0 | 0.00 | 0.00 | 0.00 | 63 | 1032.9 |
| 20260506042710 | 67 | 32 | 0.0 | 2.0 | 0.00 | 0.00 | 0.00 | 62 | 1032.8 |
| 20260506041809 | 67 | 360 | 0.0 | 0.0 | 0.00 | 0.00 | 0.00 | 62 | 1032.8 |
| 20260506035815 | 67 | 315 | 0.0 | 2.0 | 0.00 | 0.00 | 0.00 | 59 | 1032.7 |
| 20260506034814 | 67 | 303 | 1.0 | 3.0 | 0.00 | 0.00 | 0.00 | 59 | 1032.7 |
| 20260506033815 | 68 | 360 | 0.0 | 0.0 | 0.00 | 0.00 | 0.00 | 58 | 1032.7 |
| 20260506032913 | 68 | 319 | 0.0 | 4.0 | 0.00 | 0.00 | 0.00 | 58 | 1032.8 |
| 20260506032813 | 68 | 315 | 0.0 | 3.0 | 0.00 | 0.00 | 0.00 | 58 | 1032.7 |
| 20260506031815 | 68 | 360 | 0.0 | 0.0 | 0.00 | 0.00 | 0.00 | 58 | 1032.5 |
| 20260506030815 | 68 | 360 | 1.0 | 4.0 | 0.00 | 0.00 | 0.00 | 58 | 1032.7 |
| 20260506030714 | 68 | 338 | 0.0 | 2.0 | 0.00 | 0.00 | 0.00 | 57 | 1032.6 |
| 20260506025715 | 68 | 341 | 0.0 | 2.0 | 0.00 | 0.00 | 0.00 | 57 | 1032.8 |
| 20260506024716 | 68 | 360 | 0.0 | 1.0 | 0.00 | 0.00 | 0.00 | 57 | 1032.7 |
| 20260506024615 | 68 | 341 | 0.0 | 2.0 | 0.00 | 0.00 | 0.00 | 57 | 1032.8 |
| 20260506023614 | 68 | 315 | 0.0 | 0.0 | 0.00 | 0.00 | 0.00 | 57 | 1032.9 |
| 20260506015517 | 70 | 270 | 0.0 | 0.0 | 0.00 | 0.00 | 0.00 | 51 | 1032.7 |
| 20260506014613 | 71 | 360 | 0.0 | 0.0 | 0.00 | 0.00 | 0.00 | 49 | 1032.5 |
| 20260506013615 | 71 | 300 | 0.0 | 3.0 | 0.00 | 0.00 | 0.00 | 48 | 1032.4 |
| 20260506011614 | 72 | 337 | 0.0 | 5.0 | 0.00 | 0.00 | 0.00 | 45 | 1032.2 |
| 20260506010616 | 73 | 360 | 0.0 | 1.0 | 0.00 | 0.00 | 0.00 | 42 | 1032.1 |
| 20260506010514 | 73 | 330 | 0.0 | 2.0 | 0.00 | 0.00 | 0.00 | 42 | 1032.2 |
| 20260506005513 | 74 | 247 | 0.0 | 0.0 | 0.00 | 0.00 | 0.00 | 41 | 1032.0 |
| 20260506004516 | 74 | 324 | 0.0 | 0.0 | 0.00 | 0.00 | 0.00 | 39 | 1031.9 |
| 20260506003614 | 74 | 14 | 0.0 | 1.0 | 0.00 | 0.00 | 0.00 | 39 | 1031.7 |
| 20260506003515 | 74 | 14 | 0.0 | 2.0 | 0.00 | 0.00 | 0.00 | 39 | 1031.7 |
| 20260506000614 | 75 | 2 | 1.0 | 3.0 | 0.00 | 0.00 | 0.00 | 39 | 1031.4 |
| 20260505235613 | 75 | 337 | 0.0 | 0.0 | 0.00 | 0.00 | 0.00 | 40 | 1031.3 |
| 20260505234614 | 76 | 350 | 1.0 | 4.0 | 0.00 | 0.00 | 0.00 | 40 | 1031.2 |
| 20260505233615 | 76 | 7 | 0.0 | 3.0 | 0.00 | 0.00 | 0.00 | 40 | 1031.2 |
| 20260505233514 | 76 | 22 | 1.0 | 2.0 | 0.00 | 0.00 | 0.00 | 40 | 1031.1 |
| 20260505230516 | 77 | 41 | 1.0 | 4.0 | 0.00 | 0.00 | 0.00 | 38 | 1031.0 |
| 20260505225515 | 77 | 337 | 0.0 | 0.0 | 0.00 | 0.00 | 0.00 | 37 | 1031.0 |
| 20260505224515 | 78 | 225 | 0.0 | 1.0 | 0.00 | 0.00 | 0.00 | 36 | 1030.8 |
| 20260505224415 | 78 | 79 | 0.0 | 3.0 | 0.00 | 0.00 | 0.00 | 35 | 1030.8 |
| 20260505223415 | 78 | 218 | 0.0 | 3.0 | 0.00 | 0.00 | 0.00 | 34 | 1030.8 |
| 20260505222514 | 78 | 278 | 1.0 | 3.0 | 0.00 | 0.00 | 0.00 | 34 | 1030.6 |
| 20260505221614 | 78 | 274 | 0.0 | 3.0 | 0.00 | 0.00 | 0.00 | 34 | 1030.7 |
| 20260505221516 | 78 | 142 | 0.0 | 1.0 | 0.00 | 0.00 | 0.00 | 33 | 1030.7 |
| 20260505221415 | 78 | 201 | 1.0 | 3.0 | 0.00 | 0.00 | 0.00 | 33 | 1030.9 |
| 20260505221314 | 78 | 313 | 1.0 | 8.0 | 0.00 | 0.00 | 0.00 | 33 | 1030.7 |
| 20260505220414 | 79 | 189 | 1.0 | 3.0 | 0.00 | 0.00 | 0.00 | 33 | 1030.7 |
| 20260505215415 | 79 | 5 | 0.0 | 2.0 | 0.00 | 0.00 | 0.00 | 32 | 1030.6 |
| 20260505214513 | 79 | 139 | 0.0 | 2.0 | 0.00 | 0.00 | 0.00 | 32 | 1030.6 |
| 20260505213516 | 79 | 246 | 1.0 | 5.0 | 0.00 | 0.00 | 0.00 | 31 | 1030.7 |
| 20260505212613 | 79 | 289 | 1.0 | 9.0 | 0.00 | 0.00 | 0.00 | 31 | 1030.7 |
| 20260505210617 | 79 | 293 | 0.0 | 3.0 | 0.00 | 0.00 | 0.00 | 30 | 1030.6 |
| 20260505205714 | 79 | 315 | 0.0 | 0.0 | 0.00 | 0.00 | 0.00 | 28 | 1030.5 |
| 20260505204813 | 80 | 274 | 0.0 | 2.0 | 0.00 | 0.00 | 0.00 | 27 | 1030.4 |
| 20260505202817 | 82 | 214 | 0.0 | 2.0 | 0.00 | 0.00 | 0.00 | 25 | 1030.5 |
| 20260505201817 | 82 | 191 | 2.0 | 5.0 | 0.00 | 0.00 | 0.00 | 26 | 1030.5 |
| 20260505200913 | 83 | 62 | 3.0 | 8.0 | 0.00 | 0.00 | 0.00 | 26 | 1030.5 |
| 20260505200814 | 83 | 45 | 0.0 | 0.0 | 0.00 | 0.00 | 0.00 | 27 | 1030.6 |
| 20260505200715 | 83 | 58 | 0.0 | 1.0 | 0.00 | 0.00 | 0.00 | 26 | 1030.5 |
| 20260505195714 | 83 | 190 | 0.0 | 4.0 | 0.00 | 0.00 | 0.00 | 28 | 1030.6 |
| 20260505194813 | 83 | 146 | 0.0 | 2.0 | 0.00 | 0.00 | 0.00 | 27 | 1030.6 |
| 20260505193814 | 83 | 297 | 1.0 | 7.0 | 0.00 | 0.00 | 0.00 | 27 | 1030.7 |
| 20260505193715 | 83 | 312 | 0.0 | 2.0 | 0.00 | 0.00 | 0.00 | 28 | 1030.6 |
| 20260505193616 | 83 | 331 | 1.0 | 4.0 | 0.00 | 0.00 | 0.00 | 27 | 1030.7 |
| 20260505192615 | 82 | 322 | 1.0 | 2.0 | 0.00 | 0.00 | 0.00 | 28 | 1030.6 |